Temperature
20 21 20 20 24 25 24 24 24 23 23 22 22 22 23 22 22 21 17 17 17 17 16 17 17 17 17 17 17 17 17 17 17 17 17 17 17 17 17 17 17 17 17 17 17 17 17 17 17
20 21 20 22 25 25 24 24 23 23 22 21 21 22 22 21 19 18 17 16 16 16 16 16 17 17 17 17 17 17 17 17 17 17 17 17 17 17 17 17 17 17 17 17 17 17 17 17 17
21 21 22 24 25 25 24 24 23 23 22 22 21 21 21 20 18 17 17 17 16 16 16 16 17 17 17 17 17 17 17 17 17 17 17 17 16 16 17 17 17 17 17 17 17 17 17 17 17
20 21 23 25 24 24 24 24 23 23 22 21 22 21 20 18 18 17 17 17 16 16 16 16 17 17 17 17 17 17 17 17 17 17 17 16 16 16 16 16 16 16 17 17 16 16 17 17 17
21 23 24 24 23 23 24 23 23 23 22 22 22 21 20 17 17 17 17 16 16 16 16 16 17 17 17 17 16 17 17 16 16 16 16 16 16 16 16 16 16 16 16 16 16 16 16 17 17
22 24 25 24 23 23 23 23 23 23 22 21 21 21 19 17 17 17 17 16 16 16 16 16 17 17 17 16 16 16 16 16 16 16 16 16 16 16 16 16 16 16 16 16 16 16 16 16 16
23 24 24 24 23 23 23 22 23 23 22 21 21 21 19 17 17 17 17 16 16 16 16 16 16 16 16 16 16 16 16 16 16 16 16 16 16 16 16 16 16 16 16 16 16 16 16 16 16
22 24 24 24 23 23 23 22 22 22 22 20 20 21 20 18 17 17 17 16 16 16 16 16 16 16 16 16 16 16 16 16 16 16 16 16 16 16 16 16 16 16 16 16 16 16 16 16 16
22 24 24 23 23 23 22 22 21 21 21 20 20 20 19 18 17 17 17 16 16 16 16 16 16 16 16 16 16 16 16 16 16 16 16 16 15 15 15 16 16 16 16 16 16 16 16 16 16
23 24 23 23 24 23 22 22 22 22 21 20 19 18 18 17 17 17 17 17 17 17 16 16 16 16 16 16 16 16 16 16 15 15 15 15 15 15 15 15 15 15 16 16 16 16 15 15 15
24 23 23 23 23 22 22 22 22 22 22 21 20 19 18 17 17 17 17 17 17 17 16 16 16 16 16 16 16 16 15 15 15 15 15 15 15 15 15 15 15 15 15 15 15 15 15 15 15
23 23 23 23 22 22 22 22 22 21 21 20 20 19 18 17 17 17 17 17 17 16 16 16 16 16 16 16 16 15 15 15 15 15 15 15 15 15 15 15 15 15 15 15 15 15 15 15 15
23 23 22 22 22 22 22 22 21 21 20 19 19 19 18 18 18 17 17 17 17 16 16 16 16 16 16 16 16 15 15 15 15 15 15 15 15 15 15 15 15 14 14 14 14 14 15 15 15
23 22 22 22 22 22 22 22 21 20 19 19 19 18 18 18 18 17 17 17 17 17 16 16 16 16 16 16 16 15 15 15 15 15 15 15 15 15 15 14 14 14 14 14 14 14 14 14 14
22 23 23 22 22 22 22 22 22 20 20 19 19 19 18 18 17 17 17 17 17 17 17 16 16 16 16 16 16 15 15 15 15 15 15 15 15 15 14 14 14 14 14 14 14 14 14 14 14
23 23 22 23 22 22 22 22 22 20 20 20 19 19 18 18 17 17 17 17 17 17 17 16 16 16 16 16 15 15 15 15 15 15 15 15 15 15 14 14 14 14 14 14 14 14 14 14 14
23 23 22 22 23 22 22 22 22 20 20 20 19 19 18 18 18 17 17 17 17 17 17 16 16 16 16 16 15 15 15 15 15 15 15 14 14 14 14 14 14 14 14 14 14 14 14 14 13
23 23 23 22 22 22 22 22 22 20 20 20 20 19 19 18 18 18 17 17 17 17 17 16 16 16 16 16 15 15 15 15 15 15 15 14 14 14 14 14 14 14 14 14 14 14 14 13 13
23 22 22 22 22 22 22 22 22 21 20 20 20 19 19 19 18 18 17 17 17 17 17 17 16 16 16 15 15 15 15 15 15 15 15 14 14 14 14 14 14 14 14 14 14 13 13 13 13
22 22 22 22 22 22 22 22 22 21 21 20 20 20 19 19 19 18 17 17 17 17 17 17 16 16 16 15 15 15 15 15 15 15 15 15 14 14 14 14 14 14 14 13 13 13 13 13 13
22 22 22 22 22 22 22 22 22 22 21 20 19 19 19 18 19 18 17 17 17 17 17 17 16 16 16 15 15 15 15 15 15 15 15 15 14 14 14 14 14 14 13 13 13 13 13 13 13
22 22 22 22 22 22 22 22 22 22 21 21 20 19 18 18 18 18 17 17 17 17 17 16 16 16 16 16 15 15 15 15 15 15 15 15 14 14 14 14 14 14 14 14 13 13 13 13 13
22 22 22 22 22 22 22 22 23 22 21 21 20 19 18 18 18 17 17 17 17 17 16 16 16 16 16 16 15 15 15 15 15 15 15 15 14 14 14 14 14 14 14 14 13 13 13 13 13
22 22 22 22 22 21 22 22 22 22 21 21 20 19 18 18 17 17 17 16 16 16 16 16 16 16 16 16 15 15 15 15 15 15 15 15 14 14 14 14 14 14 14 14 13 13 13 13 13
22 22 21 21 21 21 22 21 22 21 21 20 20 19 18 17 17 17 17 16 16 16 16 16 16 16 16 15 15 15 15 15 15 15 15 14 14 14 14 14 14 14 14 14 14 13 13 13 13
22 22 21 21 21 21 21 21 22 21 20 19 18 18 17 17 17 16 16 16 16 16 16 16 16 16 15 15 15 15 15 15 15 15 14 14 15 15 14 14 14 14 14 14 14 14 13 13 13
22 22 22 22 21 21 21 21 21 21 20 19 18 17 17 17 16 16 16 16 16 16 16 16 16 16 15 15 15 15 15 15 15 15 14 14 14 14 14 14 14 14 14 14 14 14 13 13 13
22 22 21 21 20 20 21 21 21 20 20 19 19 17 17 16 16 15 15 15 15 15 15 15 15 15 15 15 15 15 15 15 15 15 14 14 14 14 14 14 14 14 14 14 14 13 13 13 13
21 21 21 21 21 20 20 21 21 20 20 19 19 17 16 16 15 15 15 15 15 15 15 15 15 15 15 15 15 15 15 15 15 14 14 14 14 14 14 14 14 14 14 14 13 13 13 13 13
21 21 21 21 20 20 20 21 20 20 19 18 18 17 16 15 15 15 15 15 15 15 15 15 15 15 15 15 15 15 15 15 14 14 14 14 14 14 14 14 14 13 13 13 13 13 13 13 13
Wind_Speed
4 3 2 2 2 2 4 4 3 4 4 4 5 4 5 5 5 4 4 4 4 4 5 6 7 8 10 10 11 10 10 10 9 9 9 9 9 9 8 9 9 9 10 10 10 10 10 10 10
2 2 2 2 2 3 4 4 5 5 5 5 4 4 5 6 5 5 4 4 4 5 5 7 8 8 9 9 10 10 10 10 9 9 10 9 9 8 8 8 9 10 10 10 10 10 10 10 10
3 2 1 1 1 2 5 5 6 7 5 3 3 4 4 4 4 4 5 5 5 6 6 8 7 8 9 9 10 10 11 11 10 10 10 10 9 8 8 9 10 11 11 10 10 10 10 10 11
2 2 1 2 6 5 5 5 6 7 5 3 3 5 4 4 3 5 7 6 6 6 6 9 8 8 9 10 10 11 11 11 11 11 10 10 10 11 11 12 12 12 11 11 10 10 11 11 12
1 1 2 4 6 5 4 4 4 4 3 4 4 5 5 5 6 8 7 5 5 6 7 8 8 9 10 10 10 11 11 11 11 11 11 11 12 13 13 13 13 13 12 12 12 13 13 13 13
1 1 3 4 6 5 4 4 4 4 5 5 4 5 5 5 6 7 6 5 6 6 7 8 9 9 10 10 10 11 11 12 12 12 13 13 13 14 14 14 13 13 14 14 14 14 13 13 13
0 1 3 5 5 4 4 3 3 4 4 3 2 4 5 6 6 7 6 5 6 6 6 6 8 9 10 10 11 12 12 12 13 13 13 13 13 14 14 13 14 14 14 14 14 14 13 13 13
0 1 4 3 4 4 4 3 2 2 4 4 1 2 4 7 7 7 7 6 5 5 5 6 7 7 8 9 11 11 12 12 12 12 12 12 12 12 12 13 14 14 14 14 14 14 13 13 13
1 2 3 3 3 3 4 4 3 2 4 3 2 3 6 10 9 8 7 6 5 5 5 5 6 6 6 7 9 9 10 10 9 10 10 7 9 10 11 14 13 13 14 14 13 13 12 11 12
0 1 3 2 2 3 4 3 3 4 4 3 4 5 8 10 9 8 7 6 6 6 5 5 5 5 6 6 6 5 7 6 7 8 8 7 8 9 10 12 12 12 12 13 12 10 8 7 8
1 2 3 3 3 3 4 3 2 3 2 2 4 8 10 10 8 7 6 6 6 5 5 4 5 5 4 4 4 4 4 5 6 7 7 7 7 7 7 7 8 8 8 9 8 7 8 8 8
3 3 2 3 3 3 3 3 3 1 2 3 4 8 10 9 8 7 6 6 5 5 4 4 4 4 4 4 4 3 4 4 4 5 6 5 5 5 6 5 6 6 6 6 7 6 8 8 9
3 3 3 3 4 3 4 3 2 2 2 4 6 8 9 8 7 6 5 5 5 5 5 4 3 3 3 4 3 3 3 3 5 4 4 5 4 5 5 5 5 6 6 6 6 6 8 8 8
3 4 4 3 3 3 3 2 2 1 3 5 6 7 7 6 6 5 5 5 5 5 4 4 4 3 3 3 3 3 3 3 3 3 3 5 4 4 4 5 5 5 5 5 6 6 6 6 7
4 4 3 2 2 2 2 1 2 2 4 5 5 6 6 6 6 5 5 5 5 5 5 4 4 3 3 3 3 3 3 3 3 3 2 4 4 4 4 4 4 4 5 5 5 6 5 5 6
3 3 2 2 2 2 4 1 1 3 4 4 4 5 5 6 6 5 5 5 5 5 5 5 4 4 3 3 3 3 3 3 3 2 2 3 4 4 4 3 3 4 4 4 4 4 4 5 5
4 3 2 1 2 2 3 2 1 3 4 3 4 4 5 6 6 6 5 5 5 5 5 5 5 4 4 3 3 3 3 2 2 3 2 2 3 3 4 3 3 4 3 3 3 3 3 4 4
2 2 2 2 1 3 3 3 2 3 4 4 3 4 5 6 7 7 6 6 5 5 5 5 5 5 4 3 3 3 3 2 2 2 2 2 2 3 3 3 3 3 3 3 3 4 3 3 3
1 2 3 2 1 3 4 4 4 4 4 4 4 5 5 6 6 7 7 6 5 5 5 5 5 5 5 4 4 3 3 3 2 2 3 3 3 3 3 2 2 2 2 2 3 3 3 2 2
3 3 3 2 1 3 4 5 4 4 5 5 4 4 5 5 6 7 7 7 6 6 6 5 5 5 6 4 4 3 3 2 2 2 3 3 3 3 3 3 2 3 2 2 2 2 2 2 0
5 5 4 3 2 3 4 4 3 3 3 3 3 3 3 4 6 7 7 8 7 6 6 5 5 6 6 5 4 4 3 3 3 3 2 2 3 3 3 3 3 3 3 2 2 2 2 1 1
5 3 4 5 5 3 3 4 2 2 2 2 3 3 3 3 4 6 7 7 7 6 6 6 6 6 6 6 5 5 4 4 3 3 3 3 3 3 3 3 3 3 3 3 3 3 2 2 1
3 1 3 5 6 6 5 5 1 1 2 2 1 2 3 3 3 4 5 6 5 6 6 6 6 6 6 7 6 6 4 3 3 3 3 3 3 3 3 4 4 4 3 4 3 3 3 2 1
3 3 4 5 6 6 4 5 2 0 2 2 1 1 2 2 3 3 4 4 4 4 4 5 6 6 6 7 7 7 6 5 4 4 4 4 3 3 4 4 4 4 3 4 4 4 4 3 2
5 5 3 4 4 3 1 4 1 3 3 3 2 0 1 2 3 3 3 3 3 4 4 5 6 6 7 7 7 7 6 6 5 5 4 4 3 3 4 4 4 4 4 4 4 4 4 4 4
5 6 5 3 3 2 2 3 1 4 3 2 2 2 2 2 2 2 3 3 4 4 4 5 5 5 6 6 6 6 6 4 4 4 4 4 3 4 4 5 5 5 4 4 4 4 4 3 4
4 5 5 6 6 5 3 2 2 3 3 4 4 4 4 3 2 2 2 3 3 4 4 5 5 5 5 5 5 5 5 5 4 4 4 4 4 3 5 5 5 5 5 5 5 4 4 4 3
3 3 4 5 4 5 4 5 2 1 2 3 4 3 3 2 3 2 2 2 2 2 3 4 4 4 4 5 5 4 5 5 4 4 4 4 4 4 5 5 5 5 5 5 5 5 4 4 4
4 5 5 5 5 5 4 1 1 0 0 1 2 3 2 2 2 2 2 2 2 2 2 2 3 3 3 4 5 5 5 5 5 4 4 4 4 5 5 5 6 5 5 6 6 6 5 5 5
5 5 7 6 6 6 6 2 3 1 1 1 2 2 2 2 2 2 2 2 2 1 1 1 1 2 3 3 4 5 5 5 5 5 5 5 5 5 5 5 6 6 6 6 6 6 6 6 6
Wind_Direction
187 182 206 230 214 127 93 93 100 105 90 77 76 68 64 43 26 61 84 89 84 82 74 76 65 67 66 71 81 80 76 76 76 75 74 73 76 79 81 84 81 82 83 79 73 67 69 69 69
183 185 223 245 226 135 105 109 109 92 106 110 88 72 74 69 58 86 105 97 96 86 77 73 73 73 70 71 76 75 75 77 77 77 75 73 70 75 82 86 83 82 85 82 75 69 66 67 68
161 216 270 214 112 97 110 110 109 108 116 117 99 61 54 70 81 97 103 116 103 89 80 80 78 77 76 75 76 77 76 75 77 77 75 72 67 68 84 93 86 83 84 83 77 73 66 66 69
196 203 209 125 100 81 98 115 124 127 115 94 112 96 85 63 84 103 116 118 106 95 85 84 81 82 80 79 77 77 75 75 76 75 74 72 68 70 86 91 85 81 78 78 78 76 73 71 74
221 227 154 121 102 99 97 105 132 127 117 104 111 104 97 85 96 111 118 116 107 98 90 90 83 83 83 81 79 78 78 77 77 75 74 73 72 74 84 84 81 78 75 74 77 79 77 74 73
191 205 159 128 116 109 104 114 128 110 111 112 110 109 99 110 120 119 121 119 107 102 95 95 92 85 84 82 79 77 78 77 76 74 74 74 74 75 77 78 80 78 76 74 75 76 75 73 72
152 140 126 127 131 125 112 116 125 118 118 105 113 114 120 133 128 129 126 120 110 104 99 99 102 101 95 85 79 77 77 75 75 74 76 76 76 76 76 77 78 77 76 74 72 72 73 72 72
49 160 139 136 141 120 121 131 109 102 98 103 119 123 135 147 141 138 131 126 118 110 104 101 99 99 99 96 86 81 79 76 77 78 78 80 86 84 80 83 78 78 76 75 74 72 72 73 72
243 182 138 132 140 123 141 148 124 111 119 119 100 77 115 139 148 145 138 131 126 119 115 109 106 102 99 96 96 94 90 86 92 88 86 89 86 84 83 77 78 79 78 77 75 74 75 78 78
203 138 90 75 115 127 142 150 146 152 136 136 131 120 131 145 155 154 149 143 137 130 123 117 114 112 107 100 99 93 89 89 84 84 84 78 78 81 85 87 83 83 83 82 77 77 79 71 74
110 103 96 97 122 133 140 140 160 173 138 154 156 152 151 156 160 160 154 146 139 134 124 121 116 113 111 110 104 99 95 91 84 82 88 84 84 92 89 88 92 87 84 78 80 77 69 68 65
119 107 110 113 128 142 141 143 138 142 80 93 131 146 155 163 170 173 163 156 153 143 139 132 124 121 117 112 110 110 106 100 95 92 89 88 85 85 84 84 80 77 77 77 74 75 72 69 68
128 116 101 112 122 128 129 132 121 104 82 113 132 149 162 171 172 175 172 167 164 159 155 148 144 135 119 109 111 116 102 95 101 98 95 90 90 90 88 83 80 79 80 81 77 74 71 66 63
119 123 118 121 126 132 134 133 147 130 132 138 147 158 169 176 178 173 175 178 178 175 167 158 159 144 131 126 125 117 110 110 103 103 98 93 93 93 90 89 85 79 78 77 79 77 73 69 67
141 144 147 147 156 159 170 160 183 161 156 157 164 165 171 179 183 187 183 187 188 181 173 165 162 153 149 140 130 126 132 128 117 110 105 96 93 97 98 90 89 87 86 87 82 81 75 76 77
188 201 197 157 182 191 224 236 120 147 169 177 180 174 181 188 197 197 193 193 189 186 179 173 173 168 167 159 156 149 146 141 133 129 114 101 103 101 96 94 93 100 94 91 87 86 84 83 77
208 216 214 193 188 202 224 256 151 168 189 201 201 196 193 195 202 202 198 201 193 193 193 183 174 176 170 160 158 158 156 157 158 149 135 127 119 116 112 99 102 107 103 96 93 84 86 86 80
213 238 241 250 198 224 236 253 229 208 215 227 224 218 207 209 210 200 195 196 192 193 196 189 174 181 162 162 165 159 166 164 162 161 160 141 135 130 122 126 123 114 112 107 104 97 94 88 88
231 257 271 286 257 253 260 267 251 228 226 240 235 227 223 220 208 195 191 187 187 190 193 185 184 179 169 170 177 176 178 179 167 159 162 154 159 146 138 143 133 134 124 119 122 116 118 113 101
223 246 269 289 271 265 275 275 258 234 233 242 242 232 228 219 200 193 193 187 190 192 194 188 191 183 180 182 183 183 177 179 162 151 158 165 168 164 165 170 157 154 144 148 141 144 141 117 106
239 253 265 280 286 244 271 259 224 202 219 241 246 240 239 225 209 197 196 194 192 196 194 191 192 187 187 184 177 166 165 175 171 171 171 180 189 183 187 184 174 177 180 169 175 180 175 149 117
257 265 256 257 261 265 253 282 216 213 228 243 240 222 221 210 206 197 197 198 198 198 195 191 190 191 190 188 187 187 187 185 185 180 173 180 184 190 192 188 187 190 194 189 196 197 200 202 185
266 268 247 250 259 265 246 265 258 186 260 264 235 208 209 197 191 191 194 195 197 195 194 193 188 191 191 191 191 201 199 192 182 177 178 185 185 192 191 196 200 202 204 206 210 204 215 219 239
197 209 228 234 248 256 254 254 275 57 316 329 287 199 195 192 179 172 169 172 176 179 185 186 187 188 189 193 199 202 199 196 188 192 192 197 198 199 200 202 209 211 213 213 215 220 216 228 235
221 242 251 233 227 246 171 248 279 27 356 330 319 228 174 161 162 155 152 161 164 171 178 179 182 188 190 194 203 205 206 207 209 209 210 212 210 208 208 207 214 216 220 223 220 226 228 225 231
229 250 263 279 271 262 210 246 83 47 27 26 54 84 102 116 139 144 143 156 166 165 170 176 174 184 190 195 202 206 205 212 222 221 221 219 222 218 213 216 218 219 224 228 221 230 230 233 233
235 240 272 275 274 272 245 213 151 89 65 69 79 85 85 89 111 127 130 137 149 155 162 171 175 179 188 196 196 199 202 208 218 222 225 223 221 217 213 215 220 222 222 226 222 224 227 235 241
269 233 230 247 267 258 249 242 242 135 72 77 82 80 74 72 78 97 120 132 137 145 155 165 176 184 192 195 197 201 209 211 217 221 222 227 228 219 215 215 222 223 220 221 221 227 228 229 228
209 216 236 248 261 274 269 239 49 250 124 104 87 75 68 67 80 92 110 127 132 130 134 156 187 199 200 201 204 206 207 211 216 218 221 225 227 224 222 220 221 223 224 225 221 222 222 229 230
250 244 239 251 253 257 273 274 89 109 124 122 91 73 74 67 85 101 101 107 115 130 151 167 193 215 217 211 214 217 209 206 216 221 221 221 224 223 223 220 219 222 223 225 227 228 224 228 232
Height
1519 1519 1520 1521 1520 1518 1523 1524 1522 1524 1526 1529 1529 1529 1529 1530 1532 1539 1540 1538 1538 1538 1537 1536 1535 1534 1532 1530 1530 1530 1531 1531 1531 1530 1530 1530 1529 1529 1529 1529 1529 1529 1529 1529 1529 1529 1529 1528 1528
1520 1520 1522 1521 1517 1522 1527 1523 1524 1526 1529 1531 1531 1531 1531 1534 1537 1539 1539 1539 1539 1539 1538 1538 1536 1536 1534 1533 1533 1533 1533 1532 1532 1532 1531 1530 1530 1528 1527 1529 1529 1530 1530 1530 1530 1530 1530 1530 1529
1520 1520 1523 1518 1519 1521 1526 1524 1525 1528 1530 1531 1532 1533 1534 1537 1539 1540 1540 1539 1540 1540 1539 1538 1537 1537 1537 1536 1535 1535 1535 1534 1534 1533 1533 1531 1530 1526 1524 1527 1530 1531 1531 1532 1532 1531 1531 1531 1530
1521 1523 1522 1519 1523 1523 1523 1524 1527 1529 1531 1532 1533 1534 1537 1540 1540 1541 1540 1541 1541 1541 1541 1540 1539 1539 1538 1538 1538 1537 1537 1536 1536 1535 1534 1533 1530 1526 1524 1528 1531 1533 1533 1533 1533 1533 1532 1532 1532
1521 1522 1519 1522 1524 1525 1525 1526 1527 1528 1530 1533 1533 1535 1538 1541 1540 1541 1541 1542 1542 1542 1542 1541 1540 1540 1540 1540 1539 1539 1539 1538 1538 1537 1536 1535 1533 1531 1530 1532 1534 1534 1535 1534 1534 1534 1534 1533 1533
1522 1519 1520 1524 1526 1526 1527 1528 1529 1529 1532 1534 1535 1535 1540 1541 1541 1542 1542 1543 1543 1543 1543 1542 1542 1542 1542 1541 1541 1541 1541 1540 1540 1539 1538 1538 1537 1535 1535 1536 1536 1537 1537 1536 1536 1536 1535 1535 1535
1522 1519 1521 1523 1527 1527 1528 1530 1530 1530 1532 1535 1536 1536 1540 1542 1542 1542 1543 1544 1544 1544 1544 1544 1544 1544 1543 1543 1543 1542 1542 1542 1542 1541 1540 1540 1539 1539 1539 1539 1539 1539 1539 1538 1538 1538 1538 1537 1537
1522 1520 1522 1523 1527 1528 1529 1531 1532 1532 1534 1536 1537 1537 1539 1542 1542 1543 1544 1545 1545 1545 1545 1545 1545 1546 1546 1545 1544 1544 1544 1544 1543 1543 1543 1542 1542 1542 1541 1541 1541 1541 1541 1541 1540 1540 1540 1539 1539
1522 1522 1524 1525 1526 1527 1530 1531 1533 1534 1535 1537 1537 1538 1540 1541 1542 1544 1545 1545 1546 1546 1546 1547 1547 1547 1547 1547 1546 1546 1546 1545 1545 1545 1545 1545 1545 1545 1544 1544 1543 1543 1543 1543 1542 1542 1542 1541 1541
1523 1523 1525 1525 1525 1527 1529 1531 1533 1534 1535 1536 1538 1539 1540 1541 1543 1544 1545 1546 1546 1547 1547 1548 1548 1548 1548 1548 1548 1548 1548 1548 1548 1548 1547 1547 1547 1547 1546 1546 1546 1545 1545 1545 1545 1544 1544 1544 1544
1523 1524 1526 1527 1528 1529 1530 1532 1533 1533 1534 1535 1537 1539 1540 1541 1543 1544 1545 1546 1547 1548 1548 1548 1549 1549 1549 1549 1549 1550 1550 1549 1549 1550 1549 1549 1549 1549 1549 1549 1548 1548 1547 1547 1547 1547 1547 1547 1546
1525 1526 1527 1528 1530 1530 1530 1532 1533 1534 1536 1537 1537 1539 1540 1541 1543 1544 1545 1546 1547 1548 1548 1549 1549 1550 1550 1550 1550 1551 1551 1551 1551 1551 1551 1551 1551 1551 1551 1551 1550 1550 1549 1549 1549 1548 1549 1549 1548
1525 1527 1529 1530 1531 1531 1532 1533 1534 1535 1537 1537 1538 1539 1540 1542 1543 1544 1545 1546 1547 1548 1549 1549 1549 1550 1550 1551 1551 1551 1552 1552 1552 1552 1552 1552 1552 1552 1552 1552 1551 1551 1551 1551 1550 1550 1550 1550 1550
1527 1528 1530 1530 1531 1532 1532 1533 1535 1536 1537 1538 1538 1539 1540 1542 1543 1544 1545 1546 1547 1548 1549 1549 1550 1550 1551 1551 1551 1552 1552 1552 1553 1553 1553 1554 1553 1553 1553 1553 1553 1552 1552 1552 1552 1552 1552 1551 1551
1529 1529 1529 1530 1531 1532 1532 1533 1534 1535 1536 1537 1538 1539 1540 1541 1543 1544 1545 1545 1547 1548 1548 1549 1550 1550 1551 1551 1552 1552 1553 1553 1553 1554 1554 1555 1554 1554 1554 1554 1554 1554 1554 1554 1554 1553 1553 1552 1552
1527 1527 1530 1530 1530 1531 1533 1534 1533 1535 1536 1536 1537 1538 1540 1541 1542 1543 1544 1545 1546 1547 1548 1549 1549 1550 1551 1551 1552 1552 1553 1553 1554 1554 1554 1555 1555 1555 1555 1555 1555 1555 1555 1555 1554 1554 1554 1554 1554
1526 1528 1529 1529 1529 1530 1530 1532 1532 1534 1535 1535 1536 1537 1539 1540 1541 1542 1543 1544 1545 1546 1547 1548 1549 1549 1550 1551 1551 1552 1553 1553 1554 1554 1555 1555 1555 1556 1556 1555 1556 1556 1556 1555 1555 1555 1556 1555 1555
1528 1527 1528 1529 1528 1529 1529 1530 1531 1533 1534 1534 1535 1536 1537 1538 1539 1540 1541 1543 1544 1545 1546 1547 1548 1548 1549 1550 1551 1552 1552 1553 1553 1554 1554 1555 1555 1556 1556 1556 1556 1556 1556 1556 1556 1556 1556 1556 1556
1525 1528 1529 1528 1527 1529 1528 1528 1528 1531 1532 1532 1532 1533 1534 1536 1537 1539 1540 1541 1543 1544 1545 1546 1547 1548 1548 1549 1550 1551 1552 1553 1553 1554 1554 1555 1555 1556 1556 1556 1556 1556 1556 1556 1556 1556 1556 1556 1556
1527 1529 1528 1527 1527 1528 1527 1527 1526 1528 1529 1530 1531 1532 1533 1534 1535 1537 1538 1539 1541 1542 1543 1544 1545 1547 1547 1548 1549 1550 1551 1552 1553 1553 1553 1554 1555 1555 1556 1556 1556 1556 1556 1556 1556 1556 1557 1557 1556
1527 1528 1528 1529 1528 1526 1527 1526 1524 1525 1528 1529 1530 1530 1531 1532 1533 1535 1536 1538 1539 1540 1541 1543 1544 1545 1546 1547 1549 1550 1551 1551 1552 1553 1553 1554 1554 1555 1555 1556 1556 1556 1556 1556 1556 1556 1556 1557 1557
1528 1525 1527 1528 1529 1528 1528 1530 1521 1521 1524 1526 1527 1528 1529 1530 1531 1533 1534 1536 1537 1538 1540 1541 1542 1544 1545 1546 1547 1549 1550 1550 1551 1552 1552 1553 1554 1554 1555 1555 1555 1556 1556 1556 1556 1556 1556 1557 1557
1526 1526 1526 1526 1526 1527 1524 1528 1521 1520 1522 1523 1525 1527 1528 1529 1530 1531 1532 1534 1535 1537 1538 1539 1540 1542 1543 1545 1546 1547 1548 1549 1550 1551 1552 1552 1553 1553 1554 1554 1555 1555 1555 1555 1556 1556 1556 1556 1556
1526 1527 1526 1524 1524 1531 1524 1526 1524 1519 1521 1521 1524 1526 1527 1528 1529 1530 1531 1532 1533 1534 1535 1537 1538 1539 1541 1543 1544 1545 1547 1548 1549 1549 1550 1551 1552 1552 1552 1553 1553 1554 1554 1554 1555 1555 1555 1555 1555
1525 1527 1532 1532 1531 1528 1522 1525 1524 1520 1521 1523 1524 1525 1526 1527 1528 1529 1530 1530 1531 1532 1533 1535 1536 1537 1539 1541 1542 1544 1545 1546 1547 1548 1549 1549 1550 1550 1551 1551 1552 1552 1553 1553 1553 1554 1554 1554 1554
1523 1524 1533 1537 1534 1526 1524 1525 1521 1521 1523 1524 1525 1525 1526 1527 1527 1528 1528 1529 1530 1531 1532 1533 1534 1535 1537 1539 1540 1542 1543 1544 1545 1546 1547 1547 1548 1548 1549 1549 1550 1551 1551 1551 1551 1552 1552 1553 1553
1523 1522 1521 1525 1525 1529 1523 1520 1520 1521 1523 1524 1525 1526 1526 1527 1527 1528 1528 1529 1529 1530 1530 1532 1533 1534 1535 1537 1538 1540 1541 1542 1543 1544 1545 1546 1546 1547 1547 1547 1548 1549 1549 1549 1550 1550 1550 1551 1551
1522 1520 1524 1527 1533 1533 1526 1521 1520 1521 1522 1523 1524 1526 1527 1527 1527 1527 1528 1528 1529 1529 1530 1531 1532 1533 1534 1535 1536 1537 1539 1540 1541 1542 1543 1543 1544 1544 1545 1545 1546 1546 1547 1547 1548 1548 1548 1549 1549
1523 1523 1522 1522 1523 1528 1529 1524 1516 1519 1521 1523 1524 1526 1527 1527 1527 1527 1528 1528 1528 1529 1529 1530 1531 1532 1533 1533 1534 1535 1536 1537 1538 1539 1540 1540 1541 1541 1542 1543 1543 1544 1544 1545 1545 1545 1546 1546 1547
1520 1519 1520 1525 1524 1523 1525 1525 1518 1520 1522 1523 1525 1526 1527 1527 1527 1527 1527 1528 1528 1528 1528 1529 1529 1530 1531 1531 1532 1533 1534 1534 1535 1536 1537 1537 1538 1538 1539 1540 1540 1541 1541 1542 1542 1543 1543 1544 1544